User: anonymous   Login
Location: Robert Brownlee Observatory
(34.2308°N, 117.2089°W)
Time: 21:14:16
(UTC-07:00)
Language:

Cosmos 1943 - Orbit

View from above orbital plane
View from above orbital plane
View from above satellite
View from above satellite

Ground track
Ground track

The orbit data is extracted from the following two-line orbital elements,

1 19119U 88039A   14296.71591579 -.00000161  00000-0 -58450-4 0  2770
2 19119 071.0043 333.3041 0008885 085.3492 053.0602 14.14960039365237
Epoch (UTC): 23 October 2014 17:10:55
Eccentricity: 0.0008885
inclination: 71.0043°
perigee height: 836 km
apogee height: 849 km
right ascension of ascending node: 333.3041°
argument of perigee: 85.3492°
revolutions per day: 14.14960039
mean anomaly at epoch: 53.0602°
orbit number at epoch: 36523

The dashed part of the orbit path shows where the satellite is in the earth's shadow,  

DLR